Weather History for Broken Bow, NE

Change the Weather History Date:

Friday, December 13, 2013

  Actual Average Record
Temperature  
Mean Temperature 27 °F 25 °F  
Max Temperature 44 °F 37 °F 70 °F (1921)
Min Temperature 10 °F 13 °F -21 °F (1985)
Degree Days  
Heating Degree Days 38 40  
Month to date heating degree days 616 501  
Cooling Degree Days 0 0  
Month to date cooling degree days 0 0  
Year to date cooling degree days 814 768  
Moisture  
Dew Point 16 °F    
Average Humidity 65    
Maximum Humidity 92    
Minimum Humidity 37    
Precipitation  
Precipitation 0.00 in 0.01 in 0.15 in (1951)
Sea Level Pressure  
Sea Level Pressure 29.99 in    
Wind  
Wind Speed 9 mph (NNE)    
Max Wind Speed 24 mph    
Max Gust Speed 30 mph    
Visibility 9 miles    
Events      
T = Trace of Precipitation, MM = Missing Value Source: NWS Daily Summary

Daily Weather History Graph

Daily Weather History Graph

Search for Another Location

Airport:

Trip Planner

Search our weather history database for the weather conditions in past years. The results will help you decide how hot, cold, wet, or windy it might be!

Date:

Astronomy

Dec. 13, 2013 Rise Set
Actual Time 7:56 AM CST 5:09 PM CST
Civil Twilight 7:25 AM CST 5:40 PM CST
Nautical Twilight 6:50 AM CST 6:15 PM CST
Astronomical Twilight 6:16 AM CST 6:49 PM CST
Moon 2:54 PM CST (12/13) 4:18 AM CST (12/13)
Length of Visible Light 10h 15m
Length of Day
9h 12m
Waxing Gibbous, 88% of the Moon is Illuminated
Dec 13
Waxing Gibbous
Dec 17
Full
Dec 25
Last Quarter
Jan 1
New
Jan 7
First Quarter

Hourly Weather History & Observations

Time (CST) Temp. Windchill Dew Point Humidity Pressure Visibility Wind Dir Wind Speed Gust Speed Precip Events Conditions
12:53 AM 14.0 °F 8.2 °F 10.0 °F 84% 30.02 in 10.0 mi NNW 3.5 mph - N/A   Clear
1:53 AM 15.1 °F 9.4 °F 12.0 °F 88% 29.97 in 10.0 mi North 3.5 mph - N/A   Clear
2:53 AM 17.1 °F - 14.0 °F 88% 29.94 in 10.0 mi Calm Calm - N/A   Clear
3:53 AM 15.1 °F - 12.0 °F 88% 29.94 in 10.0 mi Calm Calm - N/A   Clear
4:53 AM 15.1 °F - 10.9 °F 84% 29.94 in 10.0 mi Calm Calm - N/A   Clear
5:53 AM 15.1 °F - 10.9 °F 84% 29.94 in 10.0 mi Calm Calm - N/A   Clear
6:53 AM 12.9 °F - 10.0 °F 88% 29.95 in 10.0 mi Calm Calm - N/A   Clear
7:53 AM 14.0 °F 5.1 °F 10.9 °F 88% 29.96 in 10.0 mi North 5.8 mph - N/A   Clear
8:53 AM 25.0 °F 19.3 °F 19.0 °F 78% 29.94 in 10.0 mi North 4.6 mph - N/A   Clear
9:53 AM 30.0 °F 24.1 °F 19.9 °F 66% 29.94 in 10.0 mi NE 5.8 mph - N/A   Clear
10:53 AM 37.0 °F 31.6 °F 21.0 °F 52% 29.93 in 10.0 mi ENE 6.9 mph - N/A   Clear
11:53 AM 41.0 °F 36.4 °F 21.0 °F 45% 29.90 in 10.0 mi ENE 6.9 mph - N/A   Clear
12:53 PM 43.0 °F 37.7 °F 19.9 °F 40% 29.87 in 10.0 mi East 9.2 mph - N/A   Clear
1:53 PM 43.0 °F 37.7 °F 19.0 °F 38% 29.88 in 10.0 mi East 9.2 mph - N/A   Clear
2:53 PM 44.1 °F 39.0 °F 19.0 °F 37% 29.88 in 10.0 mi ENE 9.2 mph - N/A   Clear
3:15 PM 41.0 °F 32.8 °F 21.2 °F 45% 29.83 in 10.0 mi North 16.1 mph - N/A   Clear
3:53 PM 35.1 °F 26.4 °F 21.0 °F 57% 29.95 in 10.0 mi NNE 12.7 mph - N/A   Clear
4:53 PM 28.9 °F 19.8 °F 19.9 °F 69% 30.00 in 10.0 mi NNE 10.4 mph - N/A   Clear
5:41 PM 21.2 °F 5.2 °F 17.6 °F 86% 29.94 in 7.0 mi North 21.9 mph 28.8 mph N/A   Scattered Clouds
5:53 PM 19.9 °F 4.8 °F 17.1 °F 89% 30.07 in 6.0 mi North 18.4 mph 26.5 mph N/A   Mostly Cloudy
6:53 PM 19.0 °F 4.5 °F 16.0 °F 88% 30.12 in 6.0 mi North 16.1 mph 24.2 mph N/A   Overcast
7:53 PM 19.0 °F 2.7 °F 16.0 °F 88% 30.14 in 6.0 mi North 20.7 mph 26.5 mph N/A   Overcast
8:53 PM 19.0 °F 5.6 °F 15.1 °F 85% 30.15 in 7.0 mi North 13.8 mph 19.6 mph N/A   Overcast
9:10 PM 19.4 °F 7.9 °F 15.8 °F 86% 30.04 in 7.0 mi North 10.4 mph - N/A   Overcast
9:53 PM 18.0 °F 1.3 °F 14.0 °F 84% 30.16 in 7.0 mi North 20.7 mph - N/A   Overcast
10:53 PM 17.1 °F -0.3 °F 12.9 °F 84% 30.18 in 7.0 mi North 21.9 mph 26.5 mph N/A   Overcast
11:53 PM 16.0 °F 0.6 °F 12.9 °F 88% 30.19 in 6.0 mi North 16.1 mph - N/A   Overcast